Location: The Saddle
(36.8333°N, 80.3417°W)
Time: 00:31:35
(UTC-04:00)

SEEDS - Pass Details

Date: 14 March 2026
Orbit: 470 x 477 km, 97.8° (Epoch: 20 April)

Event Time Altitude Azimuth Distance (km) Brightness Sun altitude
Rises 07:04:06 0° 3° (N) 2,549 ? -6.8°
Reaches altitude 10° 07:06:15 10° 355° (N) 1,663 ? -6.3°
Maximum altitude 07:09:35 38° 286° (WNW) 745 ? -5.7°
Drops below altitude 10° 07:12:53 10° 217° (SW) 1,645 ? -5.0°
Sets 07:15:00 0° 210° (SSW) 2,516 ? -4.6°
